Starlink 31557

operational
NORAD ID: 59357 Int'l Des: 2024-060 Owner: SPXS Country: US Constellation: starlink
LEOCIRCULAR

About Starlink 31557

Description loading...

Live Position

Loading 3D Globe...

Upcoming Passes

Altitude History

Altitude vs Time

uPlot chart will show altitude changes over time

Two-Line Element Set

1 59357U 24060K 25351.32785751 -.00000951 00000-0 -25036-4 0 9992
2 59357 42.9997 0.8985 0000721 285.5343 74.5429 15.27588200 97512
Epoch: Dec 17, 2025 • Age: 11 hours

Current Status

Altitude 484.2 km
Velocity 7.63 km/s
Sub-Earth Point 32.22°N, 27.68°E
Launch Date Mar 31, 2024
Age 1.7 years
Type internet

Technical Details

Classification Payload
Mass 730.00 kg
Dry Mass 700.00 kg
Total Mass 730.00 kg
Length 0.30 m
Diameter 4.10 m
Span 29.00 m
Shape Box + pan
Manufacturer SPXS
Bus Type Starlink V2M
Phase Status In Orbit
Owner/State SPXS/US

Large Constellations

Loading constellations...